Погода в Раздорах

Украина / Днепропетровская область     48°19′43″N   35°42′11″E
темп.,
°C
ветер,
м/с
пор.,
м/с
влажн.,
%
обл.,
%
осадки,
мм/ч
давл.,
гПа
погр.,
м
28 ноября, вс
вс2823:00+8ююз5129648 0.0 1007285
02:00+9юз6109287 0.0 1007354
05:00+7юз359614 0.0 100889
08:00+7ююз34950 0.0 100979
11:00+12ю46725 0.0 1008333
14:00+13ю3667100 0.0 1008451
17:00+10ююв4882100 0.0 1007170
20:00+9вюв2598100 3.0 1006140
29 ноября, пн
пн2923:00+11ю61397100 2.6 1004600
02:00+10ю5109597 2.8 1003356
05:00+10ю6119799 0.0 1002387
08:00+11ю71294100 0.1 1003593
11:00+11ю81889100 1.8 10011041
14:00+13ю91974100 2.4 996793
17:00+14ю10207456 0.4 992914
20:00+13ююз122181100 0.4 9901123
30 ноября, вт
вт3023:00+11юз13227250 0.8 9901209
02:00+5зюз11177598 0.8 995941
05:00+4зюз9157289 0.0 999796
08:00+4юз71470100 0.0 1002677
11:00+5зюз710546 0.0 1002620
14:00+6з5747100 0.0 1000731
17:00+4з3761100 0.0 1000201
20:00+3сз4863100 0.0 1000570
1 декабря, ср
ср123:00+2сз71267100 0.0 1000859
02:00+1зсз5107754 0.0 1002541
05:00−1з611825 0.0 1004501
08:00−1зюз6137585 0.0 1006593
11:00+2юз81352100 0.0 10061019
14:00+4юз71158100 0.0 10051174
17:00+3зюз61258100 0.0 1005813
20:00+2зюз6116838 0.0 1006451
2 декабря, чт
чт223:00+2зюз4973100 0.0 1008373
02:00+2юз4107565 0.0 1009300
05:00+1ююз51178100 0.0 1010246
08:00+3ююз71573100 0.0 1010441
11:00+7юз8156971 0.0 1010769
14:00+9ююз8147123 0.0 1009981
17:00+7ююз6138253 0.0 1010375
20:00+6ююз71386100 0.0 1011428